This demonstration page uses our WeatherBlox Daily Observations layout. Learn more.

Left ArrowRight Arrow

Hourly Observations for August 14, 2020

Temp ( °F °C ) Dew Point ( °F °C ) Humidity (%) Winds ( mph kmh ) Pressure ( in mb ) Visibility ( mi km ) Precip ( " mm )
12:15 am 00:15 Clear 69 20.8 65 18.6 87 87 SE 6 9 29.89 1012 10 16 N/A
12:35 am 00:35 Clear 70 21 66 18.7 87 87 SSE 6 9 29.89 1012 10 16 N/A
12:55 am 00:55 Clear 70 21 66 18.9 88 88 SSE 8 13 29.89 1012 10 16 N/A
1:15 am 01:15 Clear 70 21.2 66 19 87 87 S 8 13 29.89 1012 10 16 N/A
1:35 am 01:35 Clear 70 21.1 66 19 88 88 S 8 13 29.89 1012 10 16 N/A
1:55 am 01:55 Clear 70 21 66 19 88 88 S 8 13 29.88 1012 10 16 N/A
2:15 am 02:15 Clear 69 20.7 66 18.9 89 89 SSE 7 11 29.88 1012 10 16 N/A
2:35 am 02:35 Clear 69 20.7 66 19 90 90 S 8 13 29.88 1012 10 16 N/A
2:55 am 02:55 Clear 69 20.6 67 19.2 92 92 S 8 13 29.87 1012 10 16 N/A
3:15 am 03:15 Clear 69 20.7 67 19.5 93 93 S 8 13 29.86 1011 10 16 N/A
3:35 am 03:35 Clear 69 20.6 67 19.5 93 93 S 7 11 29.86 1011 10 16 N/A
3:55 am 03:55 Clear 69 20.7 67 19.7 94 94 SSE 6 9 29.87 1012 10 16 N/A
4:15 am 04:15 Clear 69 20.5 67 19.6 95 95 SSE 5 7 29.85 1011 10 16 N/A
4:35 am 04:35 Clear 68 20.1 67 19.3 95 95 S 6 9 29.86 1011 10 16 N/A
4:55 am 04:55 Clear 68 20.1 67 19.4 96 96 S 7 11 29.85 1011 10 16 N/A
5:15 am 05:15 Clear 68 20.1 67 19.5 96 96 SSE 5 7 29.86 1011 10 16 N/A
5:35 am 05:35 Clear 68 20.2 67 19.5 96 96 SSE 7 11 29.86 1011 10 16 N/A
5:55 am 05:55 Clear 68 20.2 67 19.5 96 96 S 7 11 29.86 1011 10 16 N/A
6:15 am 06:15 Clear 68 20.2 67 19.5 96 96 S 8 13 29.85 1011 7 11 N/A
6:35 am 06:35 Clear 68 20 67 19.3 96 96 SSE 8 13 29.85 1011 7 11 N/A
6:55 am 06:55 Sunny 68 20.1 67 19.5 96 96 S 8 13 29.86 1011 7 11 N/A
7:15 am 07:15 Sunny 69 20.5 67 19.7 95 95 S 7 11 29.87 1012 7 11 N/A
7:35 am 07:35 Sunny 69 20.7 68 20 96 96 S 7 11 29.88 1012 7 11 N/A
7:55 am 07:55 Sunny 70 21.3 69 20.5 95 95 S 8 13 29.87 1011 10 16 N/A
8:15 am 08:15 Sunny 71 21.9 69 20.8 94 94 S 8 13 29.87 1012 10 16 N/A
8:35 am 08:35 Sunny 73 22.7 70 21.3 92 92 SSW 9 15 29.87 1011 10 16 N/A
8:55 am 08:55 Partly Cloudy 74 23.6 71 21.8 90 90 SSW 8 13 29.86 1011 10 16 N/A
9:15 am 09:15 Mostly Cloudy 76 24.5 72 22.1 87 87 SSW 9 15 29.85 1011 10 16 N/A
9:35 am 09:35 Mostly Cloudy 77 25 72 22.1 84 84 SSW 9 15 29.87 1011 10 16 N/A
9:55 am 09:55 Mostly Cloudy 78 25.6 72 22.3 82 82 S 9 15 29.85 1011 10 16 N/A
10:15 am 10:15 Cloudy 80 26.5 72 22.2 77 77 SSW 9 15 29.85 1011 10 16 N/A
10:35 am 10:35 Cloudy 79 26.3 72 22.1 78 78 S 9 15 29.84 1010 10 16 N/A
10:55 am 10:55 Cloudy 80 26.9 73 22.5 77 77 SSW 10 17 29.84 1011 10 16 N/A
11:15 am 11:15 Cloudy 80 26.8 73 22.5 77 77 S 12 19 29.84 1011 10 16 N/A
11:35 am 11:35 Cloudy 82 28 73 22.7 73 73 SSW 8 13 29.85 1011 10 16 N/A
11:55 am 11:55 Cloudy 82 27.7 72 22.4 73 73 SSW 9 15 29.85 1011 10 16 N/A
12:15 pm 12:15 Cloudy 83 28.4 73 22.5 70 70 SSW 9 15 29.84 1010 10 16 N/A
12:35 pm 12:35 Cloudy 83 28.3 73 22.7 72 72 S 14 22 29.83 1010 10 16 N/A
12:55 pm 12:55 Partly Cloudy 85 29.4 73 22.9 68 68 SSE 14 22 29.81 1010 10 16 N/A
1:15 pm 13:15 Partly Cloudy 85 29.5 73 22.7 67 67 S 12 19 29.82 1010 10 16 N/A
1:35 pm 13:35 Mostly Cloudy 86 30 73 22.7 65 65 S 10 17 29.82 1010 10 16 N/A
1:55 pm 13:55 Cloudy 87 30.4 73 22.5 63 63 SSW 8 13 29.82 1010 10 16 N/A
2:15 pm 14:15 Cloudy 86 30.2 72 22.4 63 63 SSW 8 13 29.81 1009 10 16 N/A
2:35 pm 14:35 Mostly Cloudy 86 30.1 73 22.5 64 64 SW 8 13 29.83 1010 10 16 N/A
2:55 pm 14:55 Mostly Cloudy 88 31.3 72 22.4 59 59 SW 6 9 29.81 1009 10 16 N/A
3:15 pm 15:15 Cloudy 86 30 71 21.9 62 62 W 7 11 29.81 1009 10 16 N/A
3:35 pm 15:35 Cloudy 84 29 71 21.9 66 66 NW 5 7 29.83 1010 10 16 N/A
3:55 pm 15:55 Cloudy 85 29.5 70 21.1 61 61 N N/A 29.83 1010 10 16 N/A
4:15 pm 16:15 Mostly Cloudy 85 29.5 71 21.6 63 63 N 9 15 29.81 1010 10 16 N/A
4:35 pm 16:35 Partly Cloudy 85 29.6 71 21.5 62 62 N 8 13 29.81 1010 10 16 N/A
4:55 pm 16:55 Partly Cloudy 85 29.6 70 21.3 61 61 N 8 13 29.81 1010 10 16 N/A
5:15 pm 17:15 Sunny 85 29.5 70 21.1 61 61 NNW 9 15 29.81 1010 10 16 N/A
5:35 pm 17:35 Sunny 85 29.5 70 21 60 60 NNW 9 15 29.81 1010 10 16 N/A
5:55 pm 17:55 Sunny 85 29.2 69 20.7 60 60 N 7 11 29.81 1010 10 16 N/A
6:15 pm 18:15 Sunny 84 29 69 20.6 61 61 N 9 15 29.82 1010 10 16 N/A
6:35 pm 18:35 Sunny 83 28.5 68 20.2 61 61 NNW 9 15 29.83 1010 10 16 N/A
6:55 pm 18:55 Sunny 83 28.1 68 19.9 61 61 N 6 9 29.83 1010 10 16 N/A
7:15 pm 19:15 Sunny 82 27.6 66 18.7 58 58 NNE 12 19 29.84 1010 10 16 N/A
7:35 pm 19:35 Partly Cloudy 80 26.9 65 18.5 60 60 NE 10 17 29.86 1011 10 16 N/A
7:55 pm 19:55 Partly Cloudy 79 26.3 64 17.9 60 60 NE 12 19 29.87 1011 10 16 N/A
8:15 pm 20:15 Partly Cloudy 77 24.8 64 18 66 66 NNE 9 15 29.90 1012 10 16 N/A
8:35 pm 20:35 Sunny 74 23.6 64 17.7 70 70 NNE 6 9 29.91 1013 10 16 N/A
8:55 pm 20:55 Clear 72 22.4 65 18.1 77 77 NNE 5 7 29.92 1013 10 16 N/A
9:15 pm 21:15 Clear 70 21.2 65 18.1 83 83 N 6 9 29.93 1013 10 16 N/A
9:35 pm 21:35 Clear 69 20.7 64 17.7 83 83 NNE 7 11 29.94 1014 10 16 N/A
9:55 pm 21:55 Clear 69 20.5 64 17.6 84 84 NNE 7 11 29.94 1014 10 16 N/A
10:15 pm 22:15 Clear 68 20 64 17.5 86 86 N 6 9 29.95 1014 10 16 N/A
10:35 pm 22:35 Clear 67 19.3 63 17.2 88 88 NNE 5 7 29.96 1015 10 16 N/A
10:55 pm 22:55 Clear 67 19.2 63 17 87 87 N 6 9 29.97 1015 10 16 N/A
11:15 pm 23:15 Clear 66 19.1 63 17 88 88 NNE 6 9 29.97 1015 10 16 N/A
11:35 pm 23:35 Clear 65 18.6 62 16.6 88 88 NNE 5 7 29.99 1016 10 16 N/A
11:55 pm 23:55 Clear 65 18.5 62 16.7 89 89 NNE 6 9 30.00 1016 10 16 N/A

Powered by AerisWeather